{"data":{"norad_id":51778,"intl_designator":"2022-017L","name":"STARLINK-3615","alt_names":[],"object_type":"PAYLOAD","status":"ACTIVE","operator":null,"country":"US","launch_date":"2022-02-25","launch_site_code":"AFWTR","launch_vehicle":null,"mission":null,"orbit_class":"UNKNOWN","rcs_meters":null,"size_class":null,"mass_kg":null,"dimensions":null,"purposes":["comms"],"wikipedia_slug":null,"has_3d_model":false,"image_url":null,"decayed_at":null,"tle_current":{"epoch":"2026-05-24T23:23:16.690272Z","epoch_age_seconds":80817,"freshness":"FRESH","line1":"1 51778U 22017L   26144.97449873  .00020038  00000+0  12766-2 0  9994","line2":"2 51778  53.2120 346.5394 0001593  69.6769 290.4394 15.08750244234071","mean_motion":15.08750244,"eccentricity":0.0001593,"inclination_deg":53.212,"raan_deg":346.5394,"arg_perigee_deg":69.6769,"mean_anomaly_deg":290.4394,"bstar":0.0012766,"rev_number":23407,"period_min":95.443232286231,"perigee_km":538.91568869766,"apogee_km":541.11981280125,"semimajor_km":6918.1547507495,"source":"CELESTRAK","updated_at":"2026-05-25T13:38:16.951727Z"}}}